Temperature
19 18 19 19 19 19 19 19 19 19 19 19 19 19 19 19 19 19 19 19 19 19 19 19 19 19 19 19 19 19 19 19 19 19 19 19 19 18 18 18 18 18 19
19 18 19 19 19 19 19 19 19 19 19 19 19 19 19 19 19 19 19 19 19 19 19 19 19 19 19 19 19 19 19 19 19 19 19 18 19 18 18 18 18 18 18
19 18 19 19 19 19 19 19 19 19 19 19 19 19 19 19 19 19 19 19 19 19 19 19 19 19 19 19 19 18 18 19 19 19 18 18 18 18 18 18 18 18 18
18 18 18 19 19 19 19 19 19 19 19 19 19 19 19 19 19 19 19 19 19 19 19 19 19 19 19 19 18 18 18 18 19 19 18 18 18 18 18 18 18 18 18
18 18 18 18 18 18 18 18 18 18 18 18 19 19 19 18 19 19 19 19 19 19 19 19 19 18 18 18 18 18 18 18 18 18 17 18 18 18 18 18 18 18 18
18 18 18 18 18 18 18 18 18 18 18 18 18 18 18 18 18 18 18 18 18 18 18 18 18 18 18 18 18 18 18 18 18 17 17 17 18 18 18 18 18 18 18
18 18 18 18 18 18 18 18 18 18 18 18 18 18 18 18 18 18 18 18 18 18 18 18 18 18 18 18 18 18 18 18 17 17 17 17 18 18 18 18 18 18 18
18 18 17 18 18 18 18 18 18 18 18 18 18 18 18 18 18 18 18 18 18 18 18 18 18 18 18 18 18 18 18 18 17 17 17 18 18 18 18 18 18 18 18
17 17 17 17 17 17 17 17 17 17 17 18 18 18 18 18 18 18 18 18 18 18 18 18 18 18 18 18 18 18 18 18 17 17 18 17 18 18 18 18 18 18 18
17 17 17 17 17 17 17 17 17 17 17 17 17 17 18 18 18 18 18 18 18 18 18 18 18 18 18 18 18 18 18 18 17 17 18 17 18 18 18 18 18 18 18
16 16 16 16 16 16 16 16 17 17 17 17 17 17 17 17 17 17 17 17 18 18 18 18 18 18 18 18 18 18 18 17 17 18 17 18 18 18 18 18 18 18 18
16 16 16 16 16 16 16 16 16 16 16 17 17 17 17 17 17 17 17 18 18 18 18 18 17 18 18 17 17 18 18 17 17 18 18 18 18 18 18 18 18 18 18
16 15 15 15 15 15 16 16 16 16 16 16 16 17 17 17 17 17 17 17 17 17 17 17 17 17 17 17 17 18 18 18 18 18 18 18 18 18 18 18 18 18 18
15 15 15 15 15 15 15 15 15 15 15 16 16 16 16 17 17 17 17 17 17 17 17 17 17 17 17 18 18 18 18 18 18 18 18 18 18 18 18 17 17 17 17
15 15 14 14 14 14 14 14 15 15 15 15 15 16 16 16 16 16 17 17 17 17 17 17 17 17 17 18 18 18 18 18 18 18 18 18 18 18 17 17 17 17 17
15 14 14 14 14 14 14 14 14 14 14 14 15 15 15 15 16 16 16 17 17 17 17 17 17 17 17 17 17 17 18 18 18 18 18 18 18 18 18 17 17 17 17
14 14 14 13 13 13 13 13 14 14 14 14 14 14 14 15 15 15 16 16 16 17 17 17 17 17 17 17 17 17 17 18 18 18 18 18 18 18 18 17 17 17 17
14 14 13 13 13 13 13 13 13 13 13 13 13 14 14 14 14 15 15 16 16 16 16 16 17 17 17 17 17 17 17 17 18 18 18 18 18 17 17 18 17 17 17
14 13 13 13 13 13 13 13 13 13 13 13 13 13 14 14 14 14 15 15 15 16 16 16 16 16 17 17 17 17 17 17 17 18 18 18 18 17 17 17 17 17 17
14 13 13 13 13 13 13 13 12 12 13 13 13 13 13 13 14 14 14 15 15 15 16 16 16 16 16 16 17 17 17 17 17 17 18 18 18 18 17 17 17 17 17
14 13 13 13 13 12 12 12 12 12 12 12 12 13 13 13 13 13 14 14 14 15 15 15 16 16 16 16 16 16 16 17 17 17 17 18 18 18 17 17 17 17 17
13 13 13 13 12 12 12 12 12 12 12 12 12 12 12 13 13 13 13 14 14 14 15 15 15 15 16 16 16 16 16 16 16 17 17 17 18 17 17 17 17 17 17
13 13 13 12 12 12 12 12 12 12 12 12 12 12 12 13 13 13 13 13 14 14 14 14 15 15 15 16 16 16 16 16 16 16 17 17 17 17 17 17 17 17 17
13 13 13 12 12 12 12 12 12 12 12 12 12 12 12 12 12 13 13 13 13 13 14 14 14 15 15 15 15 15 15 16 16 16 16 17 17 17 17 17 17 17 17
13 13 12 12 12 12 12 12 12 12 12 12 12 12 12 12 12 12 13 13 13 13 13 14 14 14 15 15 15 15 15 15 15 16 16 16 16 17 17 17 17 17 16
13 13 12 12 12 12 12 12 12 12 12 12 12 12 12 12 12 12 12 13 13 13 13 13 14 14 14 14 15 15 15 15 15 15 16 16 16 16 16 16 16 16 16
Wind_Speed
5 7 9 7 8 7 6 6 6 5 5 5 5 5 5 4 4 3 2 2 1 1 1 1 1 2 3 4 4 4 4 4 5 5 5 5 5 5 5 4 3 6 9
4 7 8 7 8 8 7 6 6 6 5 5 5 5 5 5 4 3 3 2 2 2 1 0 1 2 2 3 3 4 4 4 4 4 3 4 5 4 4 3 3 6 7
4 6 7 6 6 7 7 7 7 6 6 6 6 6 6 6 5 4 4 4 3 3 2 1 0 1 1 2 3 3 3 3 3 2 3 2 6 5 4 4 4 5 6
3 3 3 4 3 4 5 6 7 7 7 7 7 7 6 6 6 6 5 5 5 4 3 2 1 0 1 1 2 3 2 2 1 3 2 3 4 7 3 3 4 4 5
4 3 5 3 1 2 3 4 5 6 7 7 7 7 7 7 7 7 6 6 6 6 4 3 2 1 0 1 2 2 2 1 1 5 2 2 4 5 3 3 3 4 5
5 5 7 8 6 4 4 4 5 6 6 7 7 8 8 8 8 8 8 8 7 6 5 5 3 2 1 0 1 2 1 1 5 0 1 1 3 5 2 2 3 3 5
7 7 8 10 9 8 7 6 6 6 7 8 8 9 9 9 9 9 9 9 8 7 7 6 4 4 2 1 1 2 1 3 3 0 1 1 4 4 2 2 3 3 4
7 7 8 10 9 9 8 8 8 8 8 8 9 9 9 9 9 10 10 10 9 9 8 7 6 5 4 3 2 2 2 6 4 1 0 2 5 2 2 2 3 3 4
8 8 8 9 8 8 8 9 9 9 9 8 9 9 10 10 10 10 10 10 10 10 9 8 7 6 5 4 3 3 3 5 5 2 2 2 4 1 2 2 3 4 4
8 8 8 8 8 8 7 7 9 9 9 9 9 10 11 12 12 12 12 11 11 11 10 9 8 7 6 6 5 4 4 7 7 4 2 4 4 1 2 3 4 4 4
8 8 8 9 9 8 8 7 8 8 8 9 9 10 10 10 11 11 12 8 10 11 11 10 10 9 8 9 8 6 7 8 4 4 2 6 2 2 3 3 4 5 5
9 9 8 9 9 9 8 7 7 7 7 8 9 9 9 9 9 10 7 9 11 12 12 12 11 11 12 10 11 10 9 8 6 5 4 5 2 3 3 4 4 5 5
8 9 9 9 9 9 7 7 6 6 6 7 8 8 8 9 8 9 7 8 10 12 12 11 12 11 11 9 7 9 8 7 6 5 5 7 3 4 4 5 6 6 6
9 9 10 10 10 9 9 8 7 6 6 6 7 7 6 5 6 7 7 7 7 8 8 8 7 9 10 10 10 9 9 8 6 5 5 7 5 5 5 6 7 7 7
9 10 10 10 10 10 9 8 8 7 7 8 7 7 6 6 6 5 6 6 7 7 7 6 7 8 8 9 9 9 9 9 8 7 6 9 7 6 6 6 7 8 8
10 10 10 11 11 11 9 8 8 8 7 8 7 8 8 7 6 6 7 6 6 7 6 6 7 7 7 7 9 9 9 9 9 8 7 8 10 8 7 7 8 9 9
10 10 11 11 11 11 10 10 8 8 8 7 7 8 8 8 8 7 7 6 6 7 7 7 8 7 7 8 9 10 9 9 9 10 9 7 9 12 10 9 8 9 9
10 11 11 10 11 11 10 9 8 8 8 7 8 8 8 8 8 7 7 7 7 7 6 6 7 7 7 7 8 8 8 7 9 9 9 9 8 8 11 12 10 9 10
9 10 10 11 11 11 10 8 8 8 7 7 7 7 7 8 8 8 7 7 8 6 6 7 7 6 7 6 7 7 7 7 8 8 10 10 9 8 8 12 12 11 10
9 9 10 10 10 11 9 8 7 6 6 6 6 6 7 7 8 8 7 8 7 6 6 7 7 6 5 5 6 6 6 7 7 8 8 7 8 9 9 8 10 12 12
9 10 10 10 10 9 8 8 8 7 7 6 6 7 7 7 7 7 6 7 6 7 7 8 7 7 6 5 4 4 5 7 7 7 7 7 8 8 8 9 9 8 11
9 10 10 10 10 10 8 8 7 8 7 6 5 6 7 6 6 6 6 6 6 6 7 7 7 6 5 5 4 3 4 5 6 8 7 8 9 8 9 10 10 9 9
9 10 9 10 10 10 9 7 7 6 6 5 6 5 6 6 6 6 6 6 6 6 6 7 7 8 6 6 5 4 3 5 4 5 8 8 8 7 8 8 9 10 11
8 9 9 10 10 10 9 8 9 7 7 7 7 6 6 5 5 5 6 6 6 5 6 6 7 7 7 6 6 6 4 2 3 4 5 7 8 8 8 7 8 9 10
8 8 9 9 9 10 9 8 8 8 7 7 7 7 7 6 5 5 5 5 5 5 6 6 6 7 6 7 6 6 6 4 4 4 4 5 5 6 6 7 7 7 8
7 7 8 9 9 9 9 8 8 9 9 9 8 8 7 6 5 5 5 5 5 4 5 5 6 7 7 8 8 7 6 5 6 5 4 4 5 4 6 6 6 6 7
Wind_Direction
151 156 139 170 168 169 174 179 177 176 173 171 168 168 174 176 177 179 170 175 189 179 138 83 72 68 68 62 57 57 61 68 77 81 78 79 84 96 98 109 155 121 108
144 153 140 177 175 178 183 189 192 191 190 192 189 185 193 193 195 206 209 219 222 223 227 211 55 69 69 59 49 49 56 68 76 84 97 123 102 93 101 91 29 93 119
135 150 158 172 182 187 193 199 203 205 205 205 206 205 205 206 210 216 222 227 232 240 244 235 259 68 67 52 41 40 47 70 76 90 242 143 113 100 98 106 101 110 122
108 137 142 142 192 196 203 209 214 217 218 217 218 218 217 217 219 222 228 231 237 242 242 235 237 202 85 39 26 27 39 77 71 251 232 75 100 97 99 109 117 126 124
69 62 60 40 315 252 240 238 235 232 229 229 228 226 226 227 229 232 235 237 239 240 238 233 235 227 133 40 18 12 28 91 229 257 55 61 80 94 105 109 114 128 134
56 43 47 38 24 5 327 291 271 258 251 248 246 241 239 236 236 239 240 240 239 240 239 237 235 240 231 330 354 357 8 266 245 58 72 79 91 98 105 119 120 130 142
51 39 38 37 28 16 359 333 312 293 277 266 260 255 250 244 242 243 246 245 242 242 243 238 236 241 236 244 299 326 334 283 269 156 136 94 79 91 107 126 137 138 140
50 41 36 37 26 16 3 354 340 319 300 286 275 267 260 256 252 250 249 249 246 243 242 238 235 241 242 246 258 278 294 285 226 221 166 105 81 100 125 136 135 136 134
46 39 30 22 17 15 8 360 349 334 318 304 290 278 269 264 261 258 252 252 249 245 241 237 232 235 242 247 249 257 273 289 272 232 209 116 105 142 155 152 143 136 134
36 29 20 17 7 357 350 3 351 339 329 311 291 281 274 265 259 255 254 246 247 247 243 237 233 232 236 240 241 243 251 253 240 224 216 112 115 177 168 162 149 137 131
23 16 11 3 360 351 340 347 336 327 323 308 288 275 272 263 257 249 249 252 253 250 247 241 236 232 233 224 224 229 239 239 220 236 207 99 143 200 181 171 156 147 139
10 7 4 354 348 342 338 333 324 318 312 303 294 282 271 268 265 261 262 256 257 254 249 243 240 234 234 227 201 205 229 222 228 222 158 122 191 206 193 180 168 160 150
1 360 353 345 340 336 329 324 314 304 300 296 294 289 277 270 265 258 257 248 249 247 245 228 226 232 229 230 232 219 228 227 221 220 159 146 194 210 204 189 181 169 161
1 358 351 346 339 335 329 321 310 303 299 293 289 289 283 275 271 265 256 252 254 255 253 244 238 233 237 236 228 228 219 227 225 219 165 153 195 214 213 200 186 180 173
354 352 351 342 339 336 331 320 313 308 302 297 291 284 281 276 270 267 261 253 252 255 254 251 243 240 237 239 236 234 229 222 224 221 186 164 192 209 215 208 196 187 182
349 348 346 342 339 335 329 324 319 313 303 297 292 283 276 273 270 264 261 258 253 248 250 250 244 243 238 235 236 234 237 231 224 223 221 181 187 201 211 212 203 193 188
344 342 345 340 340 337 331 327 318 311 307 301 295 287 278 272 269 264 260 254 252 250 248 249 248 248 239 228 227 230 228 232 226 222 217 216 194 192 201 210 209 202 196
340 340 341 339 339 338 335 326 319 314 313 307 300 292 285 277 270 269 263 258 252 247 242 241 241 235 238 233 228 221 224 221 232 234 219 210 213 201 190 197 205 206 204
338 337 338 341 339 339 335 326 321 318 315 311 307 301 296 288 279 270 265 263 257 247 239 239 231 228 232 232 234 229 227 222 225 228 228 220 210 208 205 178 194 204 207
339 337 338 338 338 339 336 332 328 322 320 320 317 313 307 296 286 275 266 265 264 253 244 238 235 225 226 222 232 231 226 226 226 226 234 230 223 210 213 199 194 197 200
343 342 340 336 340 341 339 334 332 330 326 324 325 325 315 306 299 282 273 268 261 254 250 243 237 230 224 212 212 226 227 231 232 221 225 227 223 220 217 211 209 202 192
344 344 341 340 341 342 338 328 321 319 315 320 321 321 320 316 307 293 278 271 259 255 250 245 232 230 222 202 202 205 218 220 230 228 220 222 223 213 219 216 210 207 211
344 346 340 339 337 340 337 330 326 324 317 326 330 324 321 318 309 300 290 280 269 260 254 247 234 226 222 208 204 196 201 217 202 215 223 220 221 217 218 218 216 210 209
344 342 340 342 341 342 339 338 336 333 331 330 327 324 319 313 309 302 293 283 275 265 256 249 239 233 225 215 207 213 218 205 203 204 214 220 215 216 219 220 223 218 211
343 342 343 345 346 348 346 344 335 336 335 333 331 331 329 327 321 313 301 287 277 268 264 257 248 238 229 223 214 203 207 210 217 219 212 211 214 216 219 219 222 221 213
342 344 345 347 349 350 348 345 346 342 340 340 342 340 335 329 325 328 317 298 286 276 267 260 251 240 236 230 224 215 208 201 205 210 214 210 214 212 213 217 220 216 211
Height
1552 1552 1552 1553 1554 1554 1555 1556 1556 1557 1557 1557 1557 1557 1557 1557 1557 1557 1557 1557 1557 1556 1556 1556 1556 1555 1555 1554 1553 1553 1552 1551 1551 1550 1549 1549 1548 1548 1548 1548 1548 1548 1547
1553 1554 1553 1554 1555 1555 1556 1556 1557 1557 1557 1557 1557 1557 1557 1557 1557 1557 1557 1557 1557 1557 1557 1556 1556 1555 1555 1555 1554 1554 1553 1552 1552 1551 1550 1550 1549 1549 1549 1548 1548 1549 1548
1554 1555 1554 1555 1555 1556 1556 1556 1557 1557 1557 1557 1557 1557 1557 1557 1557 1557 1557 1557 1557 1557 1556 1556 1556 1556 1555 1555 1554 1554 1554 1553 1552 1552 1551 1552 1551 1550 1549 1549 1549 1549 1549
1555 1555 1556 1555 1556 1556 1556 1557 1557 1557 1557 1557 1557 1557 1557 1557 1557 1557 1557 1557 1557 1556 1556 1556 1556 1555 1555 1555 1555 1554 1554 1554 1553 1553 1554 1553 1553 1550 1550 1550 1550 1550 1550
1555 1555 1555 1555 1556 1556 1556 1556 1556 1556 1556 1556 1556 1556 1556 1556 1556 1556 1556 1556 1556 1556 1556 1555 1555 1555 1555 1555 1555 1554 1554 1554 1554 1553 1553 1553 1552 1551 1551 1550 1551 1551 1551
1555 1556 1555 1555 1555 1555 1555 1556 1555 1555 1555 1555 1555 1555 1555 1555 1555 1555 1555 1555 1555 1555 1555 1555 1554 1554 1554 1554 1554 1554 1554 1554 1554 1554 1553 1553 1553 1551 1551 1551 1551 1552 1552
1556 1555 1555 1555 1555 1555 1554 1554 1554 1554 1554 1554 1553 1553 1553 1553 1553 1553 1553 1553 1553 1553 1553 1553 1553 1553 1553 1554 1554 1554 1554 1554 1555 1555 1554 1554 1553 1552 1552 1552 1552 1552 1552
1556 1555 1555 1554 1554 1554 1553 1553 1552 1552 1552 1552 1551 1551 1552 1551 1551 1551 1551 1552 1552 1552 1552 1552 1552 1552 1553 1553 1553 1553 1554 1554 1555 1555 1555 1554 1553 1552 1552 1552 1552 1552 1553
1556 1555 1555 1554 1553 1552 1552 1551 1550 1550 1549 1549 1549 1549 1549 1549 1549 1549 1549 1550 1550 1550 1551 1551 1551 1551 1551 1551 1552 1552 1553 1553 1555 1555 1555 1555 1553 1552 1552 1552 1553 1553 1553
1556 1555 1554 1553 1552 1551 1550 1549 1548 1548 1547 1547 1547 1547 1547 1547 1547 1547 1547 1548 1548 1548 1549 1549 1549 1549 1550 1550 1551 1551 1552 1553 1554 1555 1555 1554 1553 1553 1553 1553 1553 1553 1554
1557 1555 1554 1552 1551 1549 1548 1547 1546 1545 1544 1544 1544 1544 1544 1544 1545 1545 1545 1545 1546 1546 1546 1547 1548 1548 1548 1549 1549 1550 1551 1553 1554 1554 1554 1553 1553 1553 1553 1553 1553 1554 1554
1556 1555 1553 1551 1550 1548 1546 1545 1543 1543 1542 1541 1541 1541 1541 1541 1541 1541 1541 1542 1543 1543 1544 1544 1545 1546 1546 1548 1548 1548 1551 1552 1553 1554 1554 1552 1552 1552 1552 1553 1553 1554 1554
1556 1554 1552 1550 1548 1546 1544 1542 1541 1540 1539 1538 1537 1537 1537 1537 1537 1538 1538 1539 1540 1541 1542 1542 1542 1544 1546 1547 1548 1549 1550 1551 1552 1553 1553 1551 1552 1552 1552 1552 1553 1554 1554
1555 1553 1551 1549 1547 1545 1543 1541 1539 1538 1536 1535 1534 1534 1533 1534 1534 1534 1535 1536 1537 1538 1539 1540 1541 1542 1543 1545 1546 1548 1549 1549 1550 1551 1551 1550 1551 1551 1551 1552 1553 1553 1554
1555 1552 1550 1547 1545 1543 1541 1538 1537 1535 1533 1532 1530 1530 1530 1530 1530 1531 1531 1532 1533 1534 1535 1536 1537 1539 1540 1542 1544 1545 1546 1547 1548 1549 1550 1549 1550 1550 1551 1551 1552 1553 1554
1554 1551 1549 1546 1544 1541 1539 1536 1534 1532 1530 1528 1527 1526 1526 1526 1526 1527 1527 1528 1529 1530 1531 1532 1534 1535 1537 1538 1540 1542 1543 1545 1546 1547 1548 1548 1548 1549 1549 1550 1551 1552 1553
1553 1550 1547 1544 1542 1539 1536 1533 1531 1529 1527 1526 1524 1523 1523 1522 1522 1523 1523 1524 1525 1526 1527 1529 1530 1531 1533 1535 1536 1538 1540 1542 1544 1545 1546 1547 1548 1548 1548 1549 1550 1551 1552
1551 1549 1546 1543 1540 1537 1534 1531 1529 1527 1524 1523 1521 1520 1519 1519 1519 1519 1519 1520 1521 1521 1523 1524 1526 1527 1529 1531 1533 1535 1537 1538 1540 1543 1544 1545 1546 1547 1547 1548 1548 1549 1551
1550 1547 1545 1542 1538 1535 1532 1529 1526 1524 1522 1520 1518 1517 1516 1515 1515 1515 1515 1516 1517 1518 1519 1520 1522 1523 1525 1527 1529 1531 1533 1535 1537 1539 1541 1543 1544 1545 1547 1546 1547 1548 1549
1549 1546 1543 1540 1537 1534 1530 1528 1525 1522 1520 1518 1516 1514 1513 1512 1512 1512 1512 1512 1513 1514 1515 1516 1518 1519 1521 1523 1525 1527 1529 1531 1533 1535 1538 1540 1542 1543 1545 1545 1545 1546 1547
1548 1545 1542 1539 1536 1532 1529 1526 1523 1520 1518 1516 1513 1511 1510 1509 1508 1508 1508 1509 1509 1510 1511 1512 1514 1515 1517 1519 1522 1524 1525 1527 1530 1532 1534 1536 1538 1540 1541 1543 1544 1545 1546
1547 1544 1541 1538 1535 1531 1528 1524 1522 1519 1516 1514 1511 1509 1508 1506 1506 1505 1505 1505 1505 1506 1507 1508 1509 1511 1513 1515 1517 1520 1522 1524 1525 1527 1529 1532 1534 1536 1538 1540 1542 1542 1544
1546 1543 1540 1537 1534 1530 1527 1524 1520 1518 1515 1513 1510 1508 1506 1504 1503 1502 1502 1502 1502 1503 1503 1504 1506 1507 1509 1511 1513 1515 1517 1518 1521 1523 1525 1527 1530 1532 1534 1537 1539 1540 1542
1545 1542 1539 1536 1533 1530 1526 1523 1520 1517 1514 1511 1508 1506 1504 1502 1501 1500 1499 1499 1499 1499 1500 1501 1502 1503 1505 1507 1509 1511 1513 1514 1517 1518 1521 1523 1525 1527 1530 1532 1535 1537 1539
1544 1541 1538 1535 1532 1529 1526 1522 1519 1516 1513 1510 1507 1505 1503 1501 1499 1498 1497 1496 1496 1496 1496 1497 1498 1499 1501 1502 1504 1506 1508 1510 1513 1515 1516 1519 1521 1523 1526 1528 1530 1533 1535
1543 1540 1537 1534 1531 1528 1525 1522 1519 1516 1512 1509 1507 1504 1502 1500 1498 1496 1495 1494 1494 1493 1494 1494 1495 1496 1497 1499 1500 1502 1504 1506 1508 1511 1513 1514 1516 1519 1521 1523 1526 1528 1530